AirNav   Air Wisconsin Up To $57,000 Bonus
 
 1335 users online  

KTPF Peter O Knight Airport
Tampa, Florida, USA

GOING TO TAMPA?


FAA INFORMATION EFFECTIVE 08 OCTOBER 2020

Location

FAA Identifier: TPF
Lat/Long: 27-54-55.6000N 082-26-57.8000W
27-54.926667N 082-26.963333W
27.9154444,-82.4493889
(estimated)
Elevation: 7.4 ft. / 2.3 m (surveyed)
Variation: 05W (2010)
From city: 3 miles S of TAMPA, FL
Time zone: UTC -4 (UTC -5 during Standard Time)
Zip code: 33606

Airport Operations

Airport use: Open to the public
Activation date: 04/1940
Control tower: no
ARTCC: MIAMI CENTER
FSS: SAINT PETERSBURG FLIGHT SERVICE STATION
NOTAMs facility: TPF (NOTAM-D service available)
Attendance: 0700-1900
Pattern altitude: 907.4 ft. MSL
Wind indicator: lighted
Segmented circle: yes
Lights: ACTVT REIL RWY 22; VASI RWY 04; PAPI RWY 36; MIRL RWY 04/22 & 18/36 - CTAF.
Beacon: white-green (lighted land airport)
Operates sunset to sunrise.

Airport Communications

CTAF/UNICOM: 122.725
WX AWOS-3: 118.925 (813-251-6824)
TAMPA APPROACH: 119.9
TAMPA DEPARTURE: 119.9
CLEARANCE DELIVERY: 119.8 ;IFR
WX ASOS at TPA (6 nm NW): 126.45 (813-873-7228)
WX AWOS-3 at VDF (8 nm NE): 121.125 (813-630-0924)
WX ASOS at PIE (13 nm W): 134.5 (727-531-3456)
WX ASOS at SPG (13 nm SW): 118.875 (727-821-4334)
WX AWOS-3 at PCM (16 nm E): 120.025 (813-764-8259)
WX AWOS-3P at CLW (17 nm W): 119.225 (727-449-2184)

Nearby radio navigation aids

VOR radial/distance  VOR name  Freq  Var
PIEr093/12.5ST PETERSBURG VORTAC116.4005W
LALr259/23.5LAKELAND VORTAC116.0001E
SRQr016/31.1SARASOTA VOR/DME117.0005W

 
NDB name  Hdg/Dist  Freq  Var  ID
COSME164/11.036805WTP - .--.
CAPOK115/14.336005WPI .--. ..

Airport Services

Fuel available: 100LL JET-A
Parking: hangars and tiedowns
Airframe service: MAJOR
Powerplant service: MAJOR
Bottled oxygen: LOW
Bulk oxygen: HIGH/LOW

Runway Information

Runway 4/22

Dimensions: 3583 x 100 ft. / 1092 x 30 m
Surface: asphalt, in good condition
Weight bearing capacity: 
PCN 26 /F/A/X/T
Single wheel: 75.0
Double wheel: 108.0
Runway edge lights: medium intensity
RUNWAY 4  RUNWAY 22
Latitude: 27-54.653500N27-55.126017N
Longitude: 082-27.244167W082-26.844000W
Elevation: 6.9 ft.6.0 ft.
Traffic pattern: rightleft
Runway heading: 042 magnetic, 037 true222 magnetic, 217 true
Displaced threshold: 179 ft.180 ft.
Declared distances: TORA:3403 TODA:3403 ASDA:3403 LDA:3224TORA:3404 TODA:3404 ASDA:3404 LDA:3403
Markings: nonprecision, in good conditionnonprecision, in good condition
Visual slope indicator: 4-box VASI on left (3.00 degrees glide path)
Runway end identifier lights: yes
DSPLCD 213 FT FROM THR.
Touchdown point: yes, no lightsyes, no lights
Obstructions: 6 ft. fence, 200 ft. from runway, 222 ft. right of centerline, 1:1 slope to clear
6 FT FENCE 200 FT FM RWY END 222 FT R.
67 ft. tree, 1480 ft. from runway, 150 ft. right of centerline, 19:1 slope to clear
APCH RATIO 25:1 TO DSPLCD THR.

Runway 18/36

Dimensions: 2687 x 75 ft. / 819 x 23 m
Surface: asphalt, in good condition
Weight bearing capacity: 
PCN 8 /F/B/X/T
Single wheel: 27.0
Double wheel: 42.0
Runway edge lights: medium intensity
RUNWAY 18  RUNWAY 36
Latitude: 27-55.197585N27-54.757473N
Longitude: 082-26.887140W082-26.826555W
Elevation: 5.9 ft.6.3 ft.
Traffic pattern: leftright
Runway heading: 178 magnetic, 173 true358 magnetic, 353 true
Displaced threshold: 203 ft.201 ft.
Declared distances: TORA:2687 TODA:2687 ASDA:2574 LDA:2371TORA:2487 TODA:2487 ASDA:2512 LDA:2311
Markings: nonprecision, in fair conditionnonprecision, in fair condition
Visual slope indicator: 2-light PAPI on right (3.00 degrees glide path)
Touchdown point: yes, lightedyes, no lights
Obstructions: 6 ft. fence, 200 ft. from runway, 93 ft. right of centerline, 1:1 slope to clear
6 FT FENCE 200 FT FM RWY END 93 FT R.
5 ft. fence, 200 ft. from runway, 150 ft. left of centerline, 1:1 slope to clear
5 FT FENCE 200 FT FM RWY END 150 FT L.

Airport Ownership and Management from official FAA records

Ownership: Publicly-owned
Owner: HILLSBOROUGH COUNTY AVIATION AUTH
PO BOX 22287
TAMPA, FL 33622
Phone (813) 870-8776
813-251-1752
Manager: BRETT FAY
PO BOX 22287
TAMPA, FL 33606
Phone (813) 870-8735

Airport Operational Statistics

Aircraft based on the field: 98
Single engine airplanes: 87
Multi engine airplanes: 4
Helicopters: 7
    
Aircraft operations: avg 147/day *
54% transient general aviation
39% local general aviation
7% air taxi
* for 12-month period ending 13 December 2017

Additional Remarks

A30A-22 SHIP CHANNEL APCH END.
A30A-18 SHIP CHANNEL APCH END.
OCEAN VESSEL SHIP CHANNEL EAST.
GULLS ON AND INVOF ARPT.
TWY E CLSD TO ACFT WITH WING SPANS IN EXCESS OF 40 FT.
ALERT: MACDILL AFB LCTD 4 MILES SW & HOSP HEL TFC 1 NM NORTH USING UNICOM 122.825.
FOR CD CTC TAMPA APCH AT 813-878-2528

Instrument Procedures

NOTE: All procedures below are presented as PDF files. If you need a reader for these files, you should download the free Adobe Reader.

NOT FOR NAVIGATION. Please procure official charts for flight.
FAA instrument procedures published for use from 08 October 2020 at 0901Z to 05 November 2020 at 0900Z.

 
STARs - Standard Terminal Arrivals
BRDGE EIGHT   download (255KB)
DARBS THREE   download (188KB)
LZARD SIX   download (260KB)
 
IAPs - Instrument Approach Procedures
RNAV (GPS) RWY 22   download (240KB)
RNAV (GPS) RWY 36   download (249KB)
NOTE: Special Alternate Minimums apply   download (22KB)
NOTE: Special Take-Off Minimums/Departure Procedures apply   download (309KB)

Other nearby airports with instrument procedures:

KMCF - MacDill Air Force Base (5 nm SW)
KTPA - Tampa International Airport (6 nm NW)
KVDF - Tampa Executive Airport (8 nm NE)
KPIE - St Pete-Clearwater International Airport (13 nm W)
KSPG - Albert Whitted Airport (13 nm SW)
KPCM - Plant City Airport (16 nm E)
KCLW - Clearwater Air Park (17 nm W)
 
Loc | Ops | Rwys | IFR | FBO | Links
Com | Nav | Svcs | Stats | Notes


 
Area around KTPF (Peter O Knight Airport)
 
Road maps at: MapQuest Bing Google
 
Aerial photo
WARNING: Photo may not be current or correct
Aerial photo of KTPF (Peter O Knight Airport)
Photo courtesy of PhotosFromTheAir.com
Photo taken 27-Feb-2012
looking north.

Do you have a better or more recent aerial photo of Peter O Knight Airport that you would like to share? If so, please send us your photo.

 
Sectional chart

 
Airport distance calculator
Flying to Peter O Knight Airport? Find the distance to fly.

From to KTPF

Sunrise and sunset
Times for 27-Oct-2020
 Local
(UTC-4)
 Zulu
(UTC)
Morning civil twilight07:1511:15
Sunrise07:3911:39
Sunset18:4822:48
Evening civil twilight19:1223:12

Current date and time
Zulu (UTC)  27-Oct-2020 21:56:12
Local (UTC-4)  27-Oct-2020 17:56:12
 
METAR
KTPF 272135Z AUTO 11008KT 10SM SCT045 31/21 A3000 RMK AO2
KMCF 
5nm SW 
272056Z AUTO 13011KT 10SM FEW160 FEW190 SCT210 31/22 A2999 RMK AO2 SLP159 60000 T03120222 56017 FZRANO $
KTPA 
5nm NW 
272053Z 14006KT 10SM SCT045 SCT190 33/19 A3000 RMK AO2 SLP157 T03280189 56018 $
KVDF 
8nm NE 
272135Z AUTO 13008KT 10SM CLR 32/22 A3001 RMK AO2
KPIE 
12nm W 
272053Z 13008KT 10SM CLR 31/22 A2999 RMK AO2 SLP155 T03110217 56017
KSPG 
13nm SW 
272053Z 14006KT 10SM CLR 30/25 A2997 RMK AO2 SLP149 T03000250 56018
KPCM 
16nm E 
272135Z AUTO 11005KT 10SM CLR 31/22 A3003 RMK AO2
KCLW 
17nm W 
272135Z AUTO 13005KT 10SM 30/21 A2999 RMK AO2
TAF
KMCF 
5nm SW 
271700Z 2717/2823 14010G15KT 9999 SCT040 QNH3003INS BECMG 2720/2721 12009KT 9999 SCT020 SCT040 QNH2998INS BECMG 2808/2809 10012KT 8000 BR SCT030 BKN050 QNH2999INS BECMG 2814/2815 12015G20KT 9999 NSW SCT030 BKN050 QNH2995INS BECMG 2820/2821 14009KT 9999 BKN030 BKN080 QNH2990INS TX31/2718Z TN24/2811Z
KTPA 
5nm NW 
271727Z 2718/2824 13010G15KT P6SM SCT030 BKN250 FM272000 14010G15KT P6SM VCTS SCT030CB BKN250 FM280000 11007KT P6SM FEW030 BKN250 FM281500 14009KT P6SM FEW030 SCT250
KPIE 
12nm W 
271727Z 2718/2818 13010G15KT P6SM SCT025 BKN250 FM272000 14010G15KT P6SM VCTS SCT030CB BKN250 FM280000 11007KT P6SM FEW030 BKN250 FM281500 14009KT P6SM FEW030 SCT250
NOTAMs
Click for the latest NOTAMs
NOTAMs are issued by the DoD/FAA and will open in a separate window not controlled by AirNav.

 

 
 

FBO, Fuel Providers, and Aircraft Ground Support

  
 Business Name 
 
 Contact 
 
 Services / Description 
 
Fuel Prices
 
Comments
  
 Atlas Aviation
813-251-1752
[web site]
[email]
Aviation fuel, Aircraft parking (ramp or tiedown), Hangars, Passenger terminal and lounge, Flight training, Aircraft rental, Aerial tours / aerial sightseeing, ...
 
Courtesy car   Hertz  
 
More info about Atlas Aviation
Shell
100LL Jet A
FS $5.64 $5.44 
 Updated 15-Oct-2020
 
   5 read write
FS=Full service
Update Fuel Prices
 

Would you like to see your business listed on this page?

 If your business provides an interesting product or service to pilots, flight crews, aircraft, or users of the Peter O Knight Airport, you should consider listing it here.  To start the listing process, click on the button below
 
Add a business
 

Other Pages about Peter O Knight Airport

Update a link
 
Copyright © AirNav, LLC. All rights reserved. Privacy Policy  Contact